Location: Dodgeville
(42.9600°N, 90.1300°W)
Time: 11:25:17
(UTC-05:00)

Amateur Radio Satellites - All Passes

Search period start: 16 April 2014 10:55
Search period end: 17 April 2014 10:55
Location: Dodgeville, 42.9600°N, 90.1300°W

Satellite Date Start Highest point End Downlink Frequencies (MHz)
Time Altitude Azimuth
PCSat 16 Apr 10:55:29 11:00:57 85° 241° (WSW) 11:06:22 145.825 MHz
Saudisat 1A 16 Apr 10:58:49 10:59:40 11° 107° (ESE) 11:00:32 436.775 MHz
RS-15 16 Apr 11:23:55 11:32:50 27° 341° (NNW) 11:41:41 29.354 - 29.394 USB, Beacon 29.352 USB
Sapphire 16 Apr 11:54:05 11:58:47 31° 250° (WSW) 12:03:27 437.095 MHz 1200 baud AX-25 AFSK
KITSAT 1 16 Apr 12:00:46 12:08:34 47° 48° (NE) 12:16:17 435.175 FM
FUNcube-1 16 Apr 12:10:27 12:14:29 46° 288° (WNW) 12:18:36 145.950 - 145.970 MHz USB
HO-68 16 Apr 12:17:17 12:22:25 22° 305° (NW) 12:27:33 435.675 MHz FM
Oscar 11 16 Apr 12:33:20 12:34:26 11° 300° (WNW) 12:35:31 145.825 FM, Beacon 2401.500 USB
Saudisat 1A 16 Apr 12:34:07 12:38:35 87° 304° (WNW) 12:43:05 436.775 MHz
PCSat 16 Apr 12:41:46 12:43:29 12° 258° (WSW) 12:45:13 145.825 MHz
AO-27 16 Apr 12:47:13 12:50:06 15° 59° (ENE) 12:53:00 436.795 MHz FM
ITAMSAT 1 16 Apr 12:58:08 13:01:36 19° 61° (ENE) 13:05:05 435.822 SSB
Oscar 19 16 Apr 13:09:09 13:13:53 40° 69° (ENE) 13:18:41 437.125 CW, 437.150 USB
Oscar 16 16 Apr 13:16:35 13:21:31 50° 70° (ENE) 13:26:29 437.025 USB, Beacon 2401.1428
AO-Echo 16 Apr 13:38:13 13:42:51 33° 67° (ENE) 13:47:25 ?
RS-15 16 Apr 13:41:24 13:50:06 26° 17° (NNE) 13:58:50 29.354 - 29.394 USB, Beacon 29.352 USB
Uribyol 2 16 Apr 13:45:35 13:50:33 49° 70° (ENE) 13:55:32 436.500 FM
KITSAT 1 16 Apr 13:56:22 14:03:57 45° 249° (WSW) 14:11:28 435.175 FM
Gurwin Techsat 1B 16 Apr 13:58:43 14:02:37 21° 62° (ENE) 14:06:31 435.225 FM
Saudisat 1A 16 Apr 14:16:15 14:18:52 15° 323° (NW) 14:21:29 436.775 MHz
AO-27 16 Apr 14:23:46 14:28:58 78° 257° (WSW) 14:34:12 436.795 MHz FM
OPAL 16 Apr 14:33:36 14:36:20 14° 92° (E) 14:39:04 ?
ITAMSAT 1 16 Apr 14:35:29 14:40:37 62° 258° (WSW) 14:45:46 435.822 SSB
TMSAT-1 16 Apr 14:47:51 14:52:44 40° 68° (ENE) 14:57:39 436.925 FM
Oscar 19 16 Apr 14:49:05 14:53:21 26° 266° (W) 14:57:39 437.125 CW, 437.150 USB
Oscar 16 16 Apr 14:57:20 15:01:08 21° 268° (W) 15:04:58 437.025 USB, Beacon 2401.1428
AO-7 16 Apr 15:07:25 15:14:23 32° 56° (NE) 15:21:20 29.400 - 29.500 MHz
JAS-1B 16 Apr 15:13:15 15:20:54 44° 68° (ENE) 15:27:23 435.800 - 435.900 CW/SSB
AO-Echo 16 Apr 15:16:49 15:21:33 33° 264° (W) 15:26:14 ?
Uribyol 2 16 Apr 15:26:26 15:30:17 21° 267° (W) 15:34:10 436.500 FM
Uosat F 16 Apr 15:32:13 15:36:52 39° 68° (ENE) 15:41:31 435.120 FM
Gurwin Techsat 1B 16 Apr 15:36:58 15:42:10 55° 260° (W) 15:47:24 435.225 FM
RS-15 16 Apr 15:54:38 16:05:25 59° 47° (NE) 16:16:24 29.354 - 29.394 USB, Beacon 29.352 USB
SO-50 16 Apr 16:09:57 16:13:54 32° 115° (ESE) 16:17:54 436.795 FM
OPAL 16 Apr 16:10:32 16:15:45 75° 288° (WNW) 16:20:57 ?
TMSAT-1 16 Apr 16:28:19 16:32:46 27° 266° (W) 16:37:14 436.925 FM
AO-7 16 Apr 16:58:25 17:06:37 66° 255° (WSW) 17:14:53 29.400 - 29.500 MHz
JAS-1B 16 Apr 17:03:44 17:11:29 40° 262° (W) 17:18:07 435.800 - 435.900 CW/SSB
ISS 16 Apr 17:11:18 17:14:39 79° 145° (SE) 17:18:01 145.800 FM
Uosat F 16 Apr 17:11:36 17:15:45 26° 265° (W) 17:19:55 435.120 FM
Hamsat 16 Apr 17:15:19 17:17:44 15° 64° (ENE) 17:20:09 145.90 MHz
SO-50 16 Apr 17:50:24 17:54:26 32° 313° (NW) 17:58:32 436.795 FM
OPAL 16 Apr 17:52:06 17:53:45 12° 306° (NW) 17:55:23 ?
RS-15 16 Apr 18:07:25 18:17:27 44° 250° (WSW) 18:27:47 29.354 - 29.394 USB, Beacon 29.352 USB
JAS-2 16 Apr 18:41:32 18:47:08 44° 70° (ENE) 18:52:15 435.800 - 435.900 CW/SSB, 435.910 FM
STRAND 1 16 Apr 18:44:11 18:47:52 20° 92° (E) 18:51:31 ?
ISS 16 Apr 18:48:51 18:51:42 25° 344° (NNW) 18:54:34 145.800 FM
Hamsat 16 Apr 18:49:12 18:53:17 52° 261° (W) 18:57:26 145.90 MHz
UOSAT-12 16 Apr 18:50:24 18:54:56 70° 121° (ESE) 18:59:34 437.025 FM, 437.400 FM
AO-7 16 Apr 18:58:31 19:00:57 11° 275° (W) 19:03:23 29.400 - 29.500 MHz
SO-67 16 Apr 19:11:22 19:14:44 48° 74° (ENE) 19:18:07 435.3500 MHz FM
HO-68 16 Apr 19:14:22 19:17:57 15° 49° (NE) 19:21:32 435.675 MHz FM
Saudisat 1A 16 Apr 19:21:47 19:24:32 16° 37° (NE) 19:27:16 436.775 MHz
STRAND 1 16 Apr 20:22:25 20:27:21 51° 289° (WNW) 20:32:15 ?
ISS 16 Apr 20:26:48 20:29:16 19° 4° (N) 20:31:44 145.800 FM
JAS-2 16 Apr 20:27:29 20:32:23 26° 265° (W) 20:36:56 435.800 - 435.900 CW/SSB, 435.910 FM
UOSAT-12 16 Apr 20:32:14 20:35:35 19° 321° (NW) 20:38:59 437.025 FM, 437.400 FM
SO-67 16 Apr 20:47:51 20:48:11 10° 270° (W) 20:48:30 435.3500 MHz FM
HO-68 16 Apr 20:57:19 21:04:23 68° 69° (ENE) 21:11:29 435.675 MHz FM
Saudisat 1A 16 Apr 21:00:19 21:04:45 85° 237° (WSW) 21:09:07 436.775 MHz
FUNcube-1 16 Apr 21:33:33 21:35:59 15° 64° (ENE) 21:38:25 145.950 - 145.970 MHz USB
Oscar 11 16 Apr 21:50:19 21:54:36 71° 75° (ENE) 21:58:55 145.825 FM, Beacon 2401.500 USB
ISS 16 Apr 22:03:32 22:06:42 37° 24° (NNE) 22:09:52 145.800 FM
MaSat-1 16 Apr 22:37:31 22:40:32 82° 113° (ESE) 22:43:11 437.345 MHz
HO-68 16 Apr 22:47:10 22:52:38 23° 268° (W) 22:58:08 435.675 MHz FM
FUNcube-1 16 Apr 23:07:54 23:12:02 51° 260° (W) 23:16:08 145.950 - 145.970 MHz USB
Oscar 11 16 Apr 23:30:26 23:31:17 11° 271° (W) 23:32:08 145.825 FM, Beacon 2401.500 USB
ISS 16 Apr 23:40:21 23:43:27 35° 222° (SW) 23:46:32 145.800 FM
SO-50 17 Apr 00:40:16 00:44:38 40° 49° (NE) 00:49:04 436.795 FM
Sapphire 17 Apr 00:53:38 00:58:16 30° 109° (ESE) 01:02:56 437.095 MHz 1200 baud AX-25 AFSK
Oscar 19 17 Apr 01:21:35 01:23:53 13° 89° (E) 01:26:10 437.125 CW, 437.150 USB
Oscar 16 17 Apr 01:28:34 01:31:48 17° 91° (E) 01:35:02 437.025 USB, Beacon 2401.1428
PCSat 17 Apr 01:37:52 01:43:15 76° 118° (ESE) 01:48:40 145.825 MHz
UOSAT-12 17 Apr 01:40:17 01:43:01 15° 35° (NE) 01:45:44 437.025 FM, 437.400 FM
OPAL 17 Apr 01:48:43 01:52:58 29° 63° (ENE) 01:57:18 ?
Uribyol 2 17 Apr 01:58:38 02:01:49 16° 91° (E) 02:04:59 436.500 FM
SO-50 17 Apr 02:21:10 02:25:03 27° 246° (WSW) 02:28:59 436.795 FM
KITSAT 1 17 Apr 02:31:36 02:37:55 26° 105° (ESE) 02:44:14 435.175 FM
AO-27 17 Apr 02:36:13 02:40:57 35° 97° (E) 02:45:39 436.795 MHz FM
Sapphire 17 Apr 02:36:24 02:41:32 42° 308° (NW) 02:46:41 437.095 MHz 1200 baud AX-25 AFSK
ITAMSAT 1 17 Apr 02:47:32 02:52:29 43° 99° (E) 02:57:23 435.822 SSB
Oscar 10/S400 17 Apr 02:54:06 03:12:51 30° 132° (SE) 04:14:10 145.825 - 145.975 CW/USB, Beacon 145.810 USB
Oscar 19 17 Apr 02:58:36 03:03:50 80° 286° (WNW) 03:09:01 437.125 CW, 437.150 USB
TMSAT-1 17 Apr 03:04:09 03:06:58 14° 89° (E) 03:09:47 436.925 FM
Oscar 16 17 Apr 03:06:27 03:11:36 64° 287° (WNW) 03:16:43 437.025 USB, Beacon 2401.1428
UOSAT-12 17 Apr 03:19:13 03:23:58 77° 55° (NE) 03:28:40 437.025 FM, 437.400 FM
AO-Echo 17 Apr 03:22:50 03:27:41 77° 103° (ESE) 03:32:23 ?
PCSat 17 Apr 03:23:15 03:27:16 21° 318° (NW) 03:31:18 145.825 MHz
OPAL 17 Apr 03:27:06 03:31:43 37° 261° (W) 03:36:25 ?
Uribyol 2 17 Apr 03:36:37 03:41:44 64° 288° (WNW) 03:46:51 436.500 FM
Uosat F 17 Apr 03:42:01 03:42:50 10° 88° (E) 03:43:39 435.120 FM
Gurwin Techsat 1B 17 Apr 03:52:11 03:57:25 56° 100° (E) 04:02:36 435.225 FM
AO-27 17 Apr 04:15:53 04:20:22 31° 294° (WNW) 04:24:51 436.795 MHz FM
KITSAT 1 17 Apr 04:24:26 04:32:33 74° 304° (NW) 04:40:42 435.175 FM
Sapphire 17 Apr 04:26:08 04:26:29 10° 330° (NNW) 04:26:50 437.095 MHz 1200 baud AX-25 AFSK
ITAMSAT 1 17 Apr 04:27:34 04:31:44 25° 296° (WNW) 04:35:52 435.822 SSB
Oscar 19 17 Apr 04:40:38 04:42:19 12° 303° (WNW) 04:44:00 437.125 CW, 437.150 USB
TMSAT-1 17 Apr 04:42:09 04:47:27 74° 286° (WNW) 04:52:43 436.925 FM
JAS-1B 17 Apr 04:47:24 04:53:00 55° 101° (E) 04:58:40 435.800 - 435.900 CW/SSB
AO-7 17 Apr 04:58:59 05:06:46 42° 99° (E) 05:14:29 29.400 - 29.500 MHz
UOSAT-12 17 Apr 05:01:16 05:03:29 13° 252° (WSW) 05:05:42 437.025 FM, 437.400 FM
AO-Echo 17 Apr 05:03:31 05:05:47 13° 301° (WNW) 05:08:02 ?
Uosat F 17 Apr 05:17:17 05:22:19 89° 286° (WNW) 05:27:19 435.120 FM
Gurwin Techsat 1B 17 Apr 05:33:05 05:36:58 21° 298° (WNW) 05:40:49 435.225 FM
STRAND 1 17 Apr 06:00:48 06:05:18 32° 67° (ENE) 06:09:49 ?
RS-15 17 Apr 06:20:59 06:30:14 31° 105° (ESE) 06:39:13 29.354 - 29.394 USB, Beacon 29.352 USB
KITSAT 1 17 Apr 06:23:11 06:29:26 24° 328° (NNW) 06:35:42 435.175 FM
TMSAT-1 17 Apr 06:25:12 06:26:27 11° 304° (NW) 06:27:41 436.925 FM
Hamsat 17 Apr 06:34:28 06:38:07 26° 95° (E) 06:41:46 145.90 MHz
JAS-1B 17 Apr 06:39:09 06:43:18 21° 300° (WNW) 06:47:26 435.800 - 435.900 CW/SSB
AO-7 17 Apr 06:51:47 06:59:36 48° 298° (WNW) 07:07:26 29.400 - 29.500 MHz
Uosat F 17 Apr 06:58:22 07:00:21 12° 302° (WNW) 07:02:20 435.120 FM
MaSat-1 17 Apr 07:00:27 07:02:32 18° 58° (ENE) 07:04:49 437.345 MHz
JAS-2 17 Apr 07:33:29 07:38:19 34° 97° (E) 07:43:30 435.800 - 435.900 CW/SSB, 435.910 FM
STRAND 1 17 Apr 07:39:53 07:44:27 32° 264° (W) 07:49:02 ?
SO-67 17 Apr 08:08:03 08:11:30 53° 100° (E) 08:14:55 435.3500 MHz FM
Hamsat 17 Apr 08:10:18 08:14:05 30° 291° (WNW) 08:17:52 145.90 MHz
KITSAT 1 17 Apr 08:24:57 08:28:30 13° 358° (N) 08:32:03 435.175 FM
HO-68 17 Apr 08:29:30 08:29:36 10° 85° (E) 08:29:42 435.675 MHz FM
RS-15 17 Apr 08:30:13 08:41:33 77° 306° (NW) 08:52:34 29.354 - 29.394 USB, Beacon 29.352 USB
MaSat-1 17 Apr 08:38:35 08:40:55 21° 248° (WSW) 08:43:34 437.345 MHz
PCSat 17 Apr 08:42:55 08:46:01 15° 37° (NE) 08:49:07 145.825 MHz
AO-7 17 Apr 08:47:48 08:50:22 12° 320° (NW) 08:52:56 29.400 - 29.500 MHz
JAS-2 17 Apr 09:18:45 09:23:25 32° 293° (WNW) 09:28:23 435.800 - 435.900 CW/SSB, 435.910 FM
Oscar 11 17 Apr 09:39:08 09:40:56 12° 90° (E) 09:42:44 145.825 FM, Beacon 2401.500 USB
Sapphire 17 Apr 09:40:07 09:44:58 32° 49° (NE) 09:49:47 437.095 MHz 1200 baud AX-25 AFSK
SO-67 17 Apr 09:43:38 09:44:12 10° 296° (WNW) 09:44:46 435.3500 MHz FM
HO-68 17 Apr 10:11:27 10:18:37 65° 103° (ESE) 10:25:44 435.675 MHz FM
KITSAT 1 17 Apr 10:21:50 10:27:44 21° 29° (NNE) 10:33:36 435.175 FM
PCSat 17 Apr 10:24:59 10:30:26 72° 58° (ENE) 10:35:50 145.825 MHz
